GAPXJ EGNX-EGNX

Flight info

Callsign GAPXJ
Flight time 1h 32m
Altitude 3000
Route VFR / EGNM / WEST COAST / PEAK DISTRICT / EGNX
Aircraft PA24/L-VGD/C

Departure

Time 2026-04-29 14:53
Airport East Midlands Airport (EGNX)

Arrival

Time 2026-04-29 16:25
Airport East Midlands Airport (EGNX)
Time Latitude Longitude Altitude Speed Heading
2026-04-29 14:26 52.82668 -1.33924 295 ft 0 kts 59°
2026-04-29 14:28 52.82667 -1.33925 295 ft 0 kts 45°
2026-04-29 14:28 52.82667 -1.33926 295 ft 0 kts 46°
2026-04-29 14:29 52.82665 -1.33929 295 ft 0 kts 46°
2026-04-29 14:29 52.82663 -1.33932 295 ft 0 kts 47°
2026-04-29 14:29 52.82668 -1.33923 295 ft 0 kts 46°
2026-04-29 14:30 52.82666 -1.33926 295 ft 0 kts 47°
2026-04-29 14:31 52.82666 -1.33927 295 ft 0 kts 46°
2026-04-29 14:34 52.82665 -1.33927 295 ft 0 kts 46°
2026-04-29 14:35 52.82665 -1.33928 295 ft 0 kts 45°
2026-04-29 14:35 52.82683 -1.33901 292 ft 3 kts 38°
2026-04-29 14:35 52.82689 -1.33891 294 ft 4 kts 49°
2026-04-29 14:36 52.82723 -1.33821 295 ft 10 kts 61°
2026-04-29 14:36 52.82749 -1.33734 295 ft 9 kts 60°
2026-04-29 14:36 52.82814 -1.33710 295 ft 13 kts 355°
2026-04-29 14:36 52.82834 -1.33715 295 ft 0 kts 349°
2026-04-29 14:40 52.82833 -1.33715 295 ft 0 kts 349°
2026-04-29 14:40 52.82834 -1.33715 295 ft 0 kts 349°
2026-04-29 14:41 52.82844 -1.33718 295 ft 5 kts 350°
2026-04-29 14:41 52.82896 -1.33727 297 ft 7 kts 356°
2026-04-29 14:41 52.82933 -1.33734 302 ft 5 kts 340°
2026-04-29 14:41 52.82954 -1.33740 300 ft 2 kts 30°
2026-04-29 14:42 52.82955 -1.33737 300 ft 0 kts 45°
2026-04-29 14:42 52.82955 -1.33738 300 ft 0 kts 45°
2026-04-29 14:44 52.82955 -1.33737 300 ft 0 kts 44°
2026-04-29 14:46 52.82955 -1.33738 300 ft 0 kts 44°
2026-04-29 14:47 52.82955 -1.33737 300 ft 0 kts 44°
2026-04-29 14:48 52.82956 -1.33736 300 ft 0 kts 43°
2026-04-29 14:49 52.82957 -1.33735 300 ft 2 kts 43°
2026-04-29 14:50 52.82979 -1.33728 302 ft 3 kts 353°
2026-04-29 14:50 52.82983 -1.33728 302 ft 0 kts 357°
2026-04-29 14:50 52.82984 -1.33728 302 ft 2 kts 359°
2026-04-29 14:50 52.83044 -1.33731 301 ft 12 kts 357°
2026-04-29 14:51 52.83084 -1.33678 302 ft 8 kts 84°
2026-04-29 14:51 52.83084 -1.33659 303 ft 1 kts 84°
2026-04-29 14:51 52.83091 -1.33471 305 ft 44 kts 86°
2026-04-29 14:51 52.83047 -1.32865 420 ft 53 kts 84°
2026-04-29 14:52 52.83039 -1.32287 536 ft 49 kts 78°
2026-04-29 14:52 52.83047 -1.31733 627 ft 48 kts 80°
2026-04-29 14:52 52.83066 -1.31176 731 ft 53 kts 81°
2026-04-29 14:52 52.83093 -1.30559 852 ft 52 kts 83°
2026-04-29 14:53 52.83078 -1.29936 960 ft 57 kts 86°
2026-04-29 14:53 52.83069 -1.29282 1110 ft 54 kts 82°
2026-04-29 14:53 52.83099 -1.28701 1253 ft 50 kts 76°
2026-04-29 14:53 52.83201 -1.28171 1362 ft 51 kts 73°
2026-04-29 14:54 52.83338 -1.27636 1480 ft 50 kts 66°
2026-04-29 14:54 52.83549 -1.27128 1572 ft 53 kts 52°
2026-04-29 14:54 52.83882 -1.26824 1678 ft 60 kts 33°
2026-04-29 14:54 52.84316 -1.26733 1785 ft 67 kts 21°
2026-04-29 14:55 52.84825 -1.26719 1835 ft 80 kts 19°
2026-04-29 14:55 52.85392 -1.26721 1909 ft 87 kts 17°
2026-04-29 14:55 52.86015 -1.26733 2008 ft 90 kts 16°
2026-04-29 14:55 52.86646 -1.26758 2130 ft 91 kts 17°
2026-04-29 14:56 52.87275 -1.26784 2156 ft 92 kts 18°
2026-04-29 14:56 52.87907 -1.26779 2189 ft 90 kts 19°
2026-04-29 14:56 52.88522 -1.26756 2207 ft 90 kts 21°
2026-04-29 14:56 52.89147 -1.26730 2232 ft 90 kts 12°
2026-04-29 14:57 52.89793 -1.26974 2210 ft 100 kts
2026-04-29 14:57 52.90460 -1.27298 2226 ft 101 kts 359°
2026-04-29 14:57 52.91139 -1.27698 2235 ft 104 kts 359°
2026-04-29 14:57 52.91829 -1.28102 2239 ft 105 kts 358°
2026-04-29 14:58 52.92466 -1.28555 2176 ft 96 kts 359°
2026-04-29 14:58 52.93124 -1.28857 2149 ft 100 kts
2026-04-29 14:58 52.93804 -1.29064 2192 ft 97 kts 11°
2026-04-29 14:58 52.94467 -1.29186 2193 ft 95 kts 15°
2026-04-29 14:59 52.95106 -1.29233 2219 ft 91 kts 18°
2026-04-29 14:59 52.95755 -1.29262 2174 ft 95 kts 15°
2026-04-29 14:59 52.96399 -1.29327 2224 ft 93 kts 17°
2026-04-29 14:59 52.97038 -1.29375 2242 ft 93 kts 17°
2026-04-29 15:00 52.97700 -1.29522 2212 ft 98 kts
2026-04-29 15:00 52.98365 -1.29833 2217 ft 102 kts
2026-04-29 15:00 52.99054 -1.30195 2219 ft 103 kts 356°
2026-04-29 15:00 52.99635 -1.30934 2214 ft 112 kts 322°
2026-04-29 15:01 53.00176 -1.31915 2221 ft 117 kts 330°
2026-04-29 15:01 53.00808 -1.32734 2254 ft 114 kts 345°
2026-04-29 15:01 53.01492 -1.33306 2288 ft 107 kts 353°
2026-04-29 15:01 53.02156 -1.33764 2348 ft 100 kts 356°
2026-04-29 15:02 53.02800 -1.34169 2369 ft 99 kts 357°
2026-04-29 15:02 53.03449 -1.34551 2398 ft 99 kts 359°
2026-04-29 15:02 53.04117 -1.34726 2436 ft 96 kts
2026-04-29 15:02 53.04781 -1.34875 2476 ft 97 kts
2026-04-29 15:03 53.05498 -1.35029 2333 ft 113 kts
2026-04-29 15:03 53.06248 -1.35156 2449 ft 98 kts
2026-04-29 15:03 53.06912 -1.35305 2525 ft 93 kts
2026-04-29 15:03 53.07537 -1.35423 2615 ft 88 kts 13°
2026-04-29 15:04 53.08140 -1.35545 2732 ft 87 kts
2026-04-29 15:04 53.08743 -1.35802 2832 ft 95 kts 355°
2026-04-29 15:04 53.09384 -1.36205 2915 ft 105 kts 355°
2026-04-29 15:04 53.10065 -1.36650 3037 ft 108 kts 354°
2026-04-29 15:05 53.10781 -1.37127 3116 ft 112 kts 353°
2026-04-29 15:05 53.11283 -1.37463 3123 ft 118 kts 352°
2026-04-29 15:05 53.12302 -1.38132 3259 ft 118 kts 352°
2026-04-29 15:05 53.13066 -1.38630 3271 ft 116 kts 352°
2026-04-29 15:06 53.13809 -1.39120 3274 ft 115 kts 352°
2026-04-29 15:06 53.14558 -1.39626 3249 ft 117 kts 352°
2026-04-29 15:06 53.15311 -1.40105 3248 ft 115 kts 353°
2026-04-29 15:06 53.16035 -1.40691 3187 ft 117 kts 343°
2026-04-29 15:07 53.16756 -1.41314 3215 ft 116 kts 355°
2026-04-29 15:07 53.17268 -1.41493 3223 ft 111 kts 10°
2026-04-29 15:07 53.18007 -1.41596 3239 ft 104 kts 12°
2026-04-29 15:07 53.18737 -1.41723 3199 ft 106 kts 10°
2026-04-29 15:08 53.19467 -1.41886 3186 ft 106 kts
2026-04-29 15:08 53.20201 -1.42087 3161 ft 108 kts
2026-04-29 15:08 53.20937 -1.42322 3167 ft 107 kts
2026-04-29 15:08 53.21674 -1.42564 3145 ft 108 kts
2026-04-29 15:09 53.22411 -1.42864 3127 ft 110 kts
2026-04-29 15:09 53.23154 -1.43154 3109 ft 109 kts
2026-04-29 15:09 53.23891 -1.43513 3076 ft 112 kts 357°
2026-04-29 15:09 53.24633 -1.43900 3060 ft 112 kts 358°
2026-04-29 15:10 53.25378 -1.44293 3053 ft 112 kts 355°
2026-04-29 15:10 53.26126 -1.44681 3014 ft 113 kts 355°
2026-04-29 15:10 53.26874 -1.45079 3009 ft 112 kts 355°
2026-04-29 15:10 53.27619 -1.45494 2980 ft 114 kts 354°
2026-04-29 15:11 53.28362 -1.45920 2975 ft 111 kts 354°
2026-04-29 15:11 53.29091 -1.46373 2951 ft 112 kts 352°
2026-04-29 15:11 53.29806 -1.46833 2956 ft 111 kts 354°
2026-04-29 15:11 53.30541 -1.47206 2948 ft 110 kts 358°
2026-04-29 15:12 53.31273 -1.47532 2931 ft 108 kts 358°
2026-04-29 15:12 53.32006 -1.47826 2935 ft 108 kts
2026-04-29 15:12 53.32740 -1.48060 2938 ft 107 kts
2026-04-29 15:12 53.33472 -1.48248 2938 ft 106 kts
2026-04-29 15:13 53.34199 -1.48258 2943 ft 102 kts 17°
2026-04-29 15:13 53.34894 -1.48118 2933 ft 100 kts 24°
2026-04-29 15:13 53.35552 -1.47781 2894 ft 97 kts 28°
2026-04-29 15:13 53.36189 -1.47458 2895 ft 95 kts 32°
2026-04-29 15:14 53.36809 -1.47123 2901 ft 92 kts 33°
2026-04-29 15:14 53.37424 -1.46782 2887 ft 94 kts 32°
2026-04-29 15:14 53.38040 -1.46442 2901 ft 92 kts 34°
2026-04-29 15:14 53.38642 -1.46069 2886 ft 92 kts 34°
2026-04-29 15:15 53.39242 -1.45690 2893 ft 93 kts 35°
2026-04-29 15:15 53.39863 -1.45808 2915 ft 96 kts 328°
2026-04-29 15:15 53.39957 -1.46895 3031 ft 104 kts 233°
2026-04-29 15:15 53.39455 -1.47883 3120 ft 117 kts 201°
2026-04-29 15:16 53.38781 -1.47862 3418 ft 87 kts 122°
2026-04-29 15:16 53.38692 -1.46969 3476 ft 88 kts 74°
2026-04-29 15:16 53.39070 -1.46057 3332 ft 103 kts 59°
2026-04-29 15:16 53.39586 -1.45178 3110 ft 107 kts 56°
2026-04-29 15:17 53.40103 -1.44305 2906 ft 107 kts 56°
2026-04-29 15:17 53.40592 -1.43418 2800 ft 101 kts 57°
2026-04-29 15:17 53.41067 -1.42600 2727 ft 89 kts 55°
2026-04-29 15:17 53.41505 -1.41895 2581 ft 88 kts 48°
2026-04-29 15:18 53.42090 -1.41614 2473 ft 95 kts 12°
2026-04-29 15:18 53.42764 -1.42040 2405 ft 112 kts 335°
2026-04-29 15:18 53.43325 -1.43029 2421 ft 121 kts 320°
2026-04-29 15:18 53.44019 -1.43844 2397 ft 122 kts 347°
2026-04-29 15:19 53.44820 -1.44346 2322 ft 124 kts 353°
2026-04-29 15:19 53.45636 -1.44790 2270 ft 122 kts 355°
2026-04-29 15:19 53.46437 -1.45226 2196 ft 123 kts 353°
2026-04-29 15:19 53.47264 -1.45693 2098 ft 126 kts 353°
2026-04-29 15:20 53.48080 -1.46179 2060 ft 124 kts 352°
2026-04-29 15:20 53.48875 -1.46748 1950 ft 126 kts 339°
2026-04-29 15:20 53.49615 -1.47527 1960 ft 124 kts 339°
2026-04-29 15:20 53.50392 -1.48140 1942 ft 120 kts 357°
2026-04-29 15:21 53.51175 -1.48454 1931 ft 113 kts 357°
2026-04-29 15:21 53.51927 -1.48816 1818 ft 111 kts 353°
2026-04-29 15:21 53.52600 -1.49420 1784 ft 111 kts 336°
2026-04-29 15:21 53.53243 -1.50156 1728 ft 112 kts 340°
2026-04-29 15:22 53.53891 -1.50820 1814 ft 107 kts 343°
2026-04-29 15:22 53.54515 -1.51438 1891 ft 107 kts 343°
2026-04-29 15:22 53.55122 -1.52273 1901 ft 118 kts 330°
2026-04-29 15:22 53.55767 -1.53109 1913 ft 114 kts 342°
2026-04-29 15:23 53.56478 -1.53478 1924 ft 103 kts
2026-04-29 15:23 53.57176 -1.53620 1903 ft 99 kts
2026-04-29 15:23 53.57870 -1.53703 1908 ft 100 kts 12°
2026-04-29 15:23 53.58549 -1.53823 1950 ft 98 kts
2026-04-29 15:24 53.59213 -1.54223 1937 ft 107 kts 345°
2026-04-29 15:24 53.59876 -1.54804 1956 ft 109 kts 349°
2026-04-29 15:24 53.60603 -1.55160 1962 ft 109 kts
2026-04-29 15:24 53.61325 -1.55198 2024 ft 101 kts 19°
2026-04-29 15:25 53.61988 -1.54945 2041 ft 95 kts 26°
2026-04-29 15:25 53.62602 -1.54610 2041 ft 92 kts 29°
2026-04-29 15:25 53.63213 -1.54266 1983 ft 93 kts 33°
2026-04-29 15:25 53.63850 -1.53996 1933 ft 97 kts 27°
2026-04-29 15:26 53.64517 -1.53870 1929 ft 99 kts 15°
2026-04-29 15:26 53.65220 -1.53893 1909 ft 103 kts 11°
2026-04-29 15:26 53.65938 -1.54075 1894 ft 107 kts 359°
2026-04-29 15:26 53.66637 -1.54548 1883 ft 110 kts 343°
2026-04-29 15:27 53.67305 -1.55219 1900 ft 111 kts 349°
2026-04-29 15:27 53.68023 -1.55575 1919 ft 105 kts
2026-04-29 15:27 53.68729 -1.55801 1925 ft 102 kts
2026-04-29 15:27 53.69430 -1.55890 1933 ft 100 kts
2026-04-29 15:28 53.70131 -1.55956 1939 ft 101 kts 13°
2026-04-29 15:28 53.70597 -1.55952 1951 ft 101 kts 12°
2026-04-29 15:28 53.71472 -1.55664 1998 ft 99 kts 50°
2026-04-29 15:28 53.71909 -1.54848 2018 ft 91 kts 60°
2026-04-29 15:29 53.72274 -1.54078 1997 ft 89 kts 60°
2026-04-29 15:29 53.72775 -1.52981 1923 ft 90 kts 57°
2026-04-29 15:30 53.73900 -1.52048 1750 ft 102 kts
2026-04-29 15:30 53.74601 -1.52137 1817 ft 99 kts
2026-04-29 15:30 53.75294 -1.52283 1900 ft 100 kts
2026-04-29 15:30 53.75998 -1.52441 1974 ft 100 kts
2026-04-29 15:31 53.76683 -1.52588 2067 ft 102 kts
2026-04-29 15:31 53.77414 -1.52767 2105 ft 104 kts
2026-04-29 15:31 53.78147 -1.52961 2164 ft 106 kts
2026-04-29 15:31 53.78883 -1.53201 2195 ft 109 kts 360°
2026-04-29 15:32 53.79603 -1.53544 2266 ft 108 kts 353°
2026-04-29 15:32 53.80324 -1.53992 2294 ft 112 kts 347°
2026-04-29 15:32 53.81027 -1.54554 2368 ft 113 kts 345°
2026-04-29 15:32 53.81693 -1.55285 2420 ft 117 kts 333°
2026-04-29 15:33 53.82336 -1.56208 2419 ft 122 kts 324°
2026-04-29 15:33 53.82908 -1.57283 2506 ft 125 kts 321°
2026-04-29 15:33 53.83523 -1.58407 2405 ft 136 kts 320°
2026-04-29 15:33 53.84200 -1.59589 2223 ft 139 kts 321°
2026-04-29 15:34 53.84877 -1.60716 2042 ft 132 kts 327°
2026-04-29 15:34 53.85553 -1.61720 1901 ft 125 kts 330°
2026-04-29 15:34 53.86182 -1.62644 1815 ft 115 kts 330°
2026-04-29 15:34 53.86769 -1.63563 1711 ft 119 kts 328°
2026-04-29 15:35 53.87340 -1.64585 1657 ft 122 kts 324°
2026-04-29 15:35 53.87941 -1.65684 1500 ft 132 kts 319°
2026-04-29 15:35 53.88468 -1.66957 1434 ft 127 kts 311°
2026-04-29 15:35 53.88772 -1.68235 1298 ft 117 kts 278°
2026-04-29 15:36 53.88445 -1.69266 1270 ft 89 kts 198°
2026-04-29 15:36 53.88037 -1.68994 1177 ft 68 kts 108°
2026-04-29 15:36 53.87830 -1.68287 1054 ft 71 kts 111°
2026-04-29 15:36 53.87536 -1.67519 892 ft 84 kts 127°
2026-04-29 15:37 53.87102 -1.66853 699 ft 77 kts 127°
2026-04-29 15:37 53.86770 -1.66341 670 ft 55 kts 128°
2026-04-29 15:37 53.86506 -1.65947 746 ft 52 kts 118°
2026-04-29 15:37 53.86202 -1.65444 848 ft 62 kts 111°
2026-04-29 15:38 53.86072 -1.64663 971 ft 78 kts 73°
2026-04-29 15:38 53.86595 -1.64333 1203 ft 102 kts
2026-04-29 15:38 53.87372 -1.64413 1505 ft 106 kts 351°
2026-04-29 15:38 53.87985 -1.65135 1616 ft 120 kts 333°
2026-04-29 15:39 53.88635 -1.66082 1641 ft 123 kts 319°
2026-04-29 15:39 53.89131 -1.67249 1732 ft 127 kts 314°
2026-04-29 15:39 53.89594 -1.68533 1721 ft 123 kts 304°
2026-04-29 15:39 53.89694 -1.69909 1683 ft 116 kts 241°
2026-04-29 15:40 53.89044 -1.70098 1682 ft 99 kts 130°
2026-04-29 15:40 53.88590 -1.69289 1447 ft 93 kts 122°
2026-04-29 15:40 53.88160 -1.68510 1140 ft 86 kts 129°
2026-04-29 15:40 53.87768 -1.67903 907 ft 71 kts 127°
2026-04-29 15:41 53.87411 -1.67360 785 ft 65 kts 128°
2026-04-29 15:41 53.87105 -1.66861 703 ft 57 kts 123°
2026-04-29 15:41 53.86834 -1.66457 679 ft 46 kts 118°
2026-04-29 15:41 53.86649 -1.66067 772 ft 43 kts 99°
2026-04-29 15:42 53.86357 -1.65663 869 ft 72 kts 150°
2026-04-29 15:42 53.85841 -1.65509 1044 ft 84 kts 178°
2026-04-29 15:42 53.85199 -1.65787 1231 ft 110 kts 189°
2026-04-29 15:42 53.84487 -1.66279 1591 ft 109 kts 193°
2026-04-29 15:43 53.83787 -1.66799 1658 ft 108 kts 197°
2026-04-29 15:43 53.83153 -1.67333 1875 ft 97 kts 195°
2026-04-29 15:43 53.82580 -1.67892 2039 ft 96 kts 193°
2026-04-29 15:43 53.81981 -1.68453 2110 ft 100 kts 195°
2026-04-29 15:44 53.81335 -1.69004 2136 ft 107 kts 194°
2026-04-29 15:44 53.80656 -1.69576 2214 ft 108 kts 193°
2026-04-29 15:44 53.79966 -1.70172 2219 ft 114 kts 192°
2026-04-29 15:44 53.79264 -1.70757 2308 ft 113 kts 191°
2026-04-29 15:45 53.78557 -1.71336 2370 ft 115 kts 194°
2026-04-29 15:45 53.77855 -1.71892 2567 ft 103 kts 189°
2026-04-29 15:45 53.77209 -1.72322 2801 ft 100 kts 180°
2026-04-29 15:45 53.76585 -1.72541 3195 ft 89 kts 167°
2026-04-29 15:46 53.75948 -1.72611 3224 ft 93 kts 166°
2026-04-29 15:46 53.75300 -1.72928 3264 ft 99 kts 181°
2026-04-29 15:46 53.74621 -1.73315 3262 ft 105 kts 184°
2026-04-29 15:46 53.73931 -1.73762 3268 ft 110 kts 185°
2026-04-29 15:47 53.73226 -1.74190 3370 ft 105 kts 182°
2026-04-29 15:47 53.72519 -1.74555 3412 ft 109 kts 177°
2026-04-29 15:47 53.71807 -1.74842 3493 ft 102 kts 172°
2026-04-29 15:47 53.71109 -1.75022 3503 ft 101 kts 168°
2026-04-29 15:48 53.70429 -1.75079 3576 ft 95 kts 161°
2026-04-29 15:48 53.69782 -1.74974 3616 ft 92 kts 151°
2026-04-29 15:48 53.69195 -1.74670 3656 ft 85 kts 139°
2026-04-29 15:48 53.68680 -1.74218 3663 ft 83 kts 141°
2026-04-29 15:49 53.68084 -1.74060 3616 ft 97 kts 171°
2026-04-29 15:49 53.67435 -1.74622 3537 ft 118 kts 212°
2026-04-29 15:49 53.67121 -1.76008 3421 ft 140 kts 263°
2026-04-29 15:49 53.67461 -1.77537 3434 ft 142 kts 316°
2026-04-29 15:50 53.68301 -1.78104 3455 ft 125 kts 17°
2026-04-29 15:50 53.69093 -1.77976 3543 ft 110 kts 21°
2026-04-29 15:50 53.69790 -1.77594 3587 ft 105 kts 56°
2026-04-29 15:50 53.70092 -1.76653 3723 ft 80 kts 89°
2026-04-29 15:51 53.70110 -1.75740 3696 ft 80 kts 92°
2026-04-29 15:51 53.70069 -1.74813 3735 ft 76 kts 102°
2026-04-29 15:51 53.69890 -1.73971 3704 ft 80 kts 116°
2026-04-29 15:51 53.69519 -1.73250 3710 ft 82 kts 134°
2026-04-29 15:52 53.68992 -1.72808 3676 ft 90 kts 149°
2026-04-29 15:52 53.68350 -1.72669 3650 ft 96 kts 164°
2026-04-29 15:52 53.67665 -1.72790 3552 ft 105 kts 172°
2026-04-29 15:52 53.66937 -1.73053 3531 ft 103 kts 176°
2026-04-29 15:53 53.66230 -1.73353 3431 ft 109 kts 174°
2026-04-29 15:53 53.65507 -1.73560 3454 ft 100 kts 168°
2026-04-29 15:53 53.64836 -1.73620 3441 ft 94 kts 160°
2026-04-29 15:53 53.64207 -1.73509 3447 ft 90 kts 150°
2026-04-29 15:54 53.63621 -1.73204 3457 ft 87 kts 142°
2026-04-29 15:54 53.63088 -1.72786 3453 ft 83 kts 137°
2026-04-29 15:54 53.62597 -1.72288 3449 ft 82 kts 133°
2026-04-29 15:54 53.62290 -1.71930 3450 ft 79 kts 133°
2026-04-29 15:55 53.61852 -1.71420 3442 ft 74 kts 133°
2026-04-29 15:55 53.61428 -1.70976 3443 ft 71 kts 135°
2026-04-29 15:55 53.60993 -1.70584 3453 ft 72 kts 138°
2026-04-29 15:55 53.60528 -1.70230 3449 ft 74 kts 142°
2026-04-29 15:56 53.60046 -1.69941 3441 ft 73 kts 145°
2026-04-29 15:56 53.59550 -1.69720 3439 ft 74 kts 149°
2026-04-29 15:56 53.59033 -1.69558 3437 ft 76 kts 151°
2026-04-29 15:56 53.58509 -1.69421 3448 ft 82 kts 150°
2026-04-29 15:57 53.57878 -1.69166 3490 ft 99 kts 151°
2026-04-29 15:57 53.57216 -1.68921 3442 ft 97 kts 153°
2026-04-29 15:57 53.56572 -1.68715 3427 ft 91 kts 152°
2026-04-29 15:57 53.55983 -1.68526 3428 ft 82 kts 151°
2026-04-29 15:58 53.55441 -1.68346 3423 ft 77 kts 149°
2026-04-29 15:58 53.54905 -1.68103 3439 ft 84 kts 146°
2026-04-29 15:58 53.54343 -1.67766 3448 ft 88 kts 145°
2026-04-29 15:58 53.53760 -1.67393 3468 ft 91 kts 144°
2026-04-29 15:59 53.53149 -1.67009 3465 ft 97 kts 145°
2026-04-29 15:59 53.52501 -1.66623 3453 ft 101 kts 146°
2026-04-29 15:59 53.51828 -1.66224 3446 ft 103 kts 147°
2026-04-29 15:59 53.51143 -1.65852 3441 ft 105 kts 148°
2026-04-29 16:00 53.50445 -1.65500 3443 ft 104 kts 149°
2026-04-29 16:00 53.49749 -1.65183 3458 ft 104 kts 150°
2026-04-29 16:00 53.49051 -1.64883 3454 ft 104 kts 150°
2026-04-29 16:00 53.48348 -1.64564 3456 ft 105 kts 150°
2026-04-29 16:01 53.47641 -1.64220 3436 ft 107 kts 150°
2026-04-29 16:01 53.46925 -1.63858 3437 ft 108 kts 150°
2026-04-29 16:01 53.46208 -1.63505 3440 ft 107 kts 150°
2026-04-29 16:01 53.45476 -1.63180 3447 ft 108 kts 151°
2026-04-29 16:02 53.44746 -1.62858 3448 ft 109 kts 149°
2026-04-29 16:02 53.44017 -1.62497 3450 ft 110 kts 149°
2026-04-29 16:02 53.43298 -1.62121 3436 ft 110 kts 149°
2026-04-29 16:02 53.42571 -1.61719 3441 ft 110 kts 149°
2026-04-29 16:03 53.41841 -1.61322 3442 ft 110 kts 149°
2026-04-29 16:03 53.41115 -1.60947 3438 ft 109 kts 150°
2026-04-29 16:03 53.40385 -1.60598 3443 ft 108 kts 151°
2026-04-29 16:03 53.39658 -1.60253 3446 ft 109 kts 151°
2026-04-29 16:04 53.38923 -1.59907 3440 ft 110 kts 151°
2026-04-29 16:04 53.38185 -1.59557 3436 ft 110 kts 151°
2026-04-29 16:04 53.37457 -1.59212 3438 ft 108 kts 151°
2026-04-29 16:04 53.36731 -1.58874 3442 ft 107 kts 151°
2026-04-29 16:05 53.36016 -1.58544 3433 ft 106 kts 150°
2026-04-29 16:05 53.35305 -1.58218 3442 ft 106 kts 150°
2026-04-29 16:05 53.34594 -1.57897 3439 ft 106 kts 150°
2026-04-29 16:05 53.33886 -1.57542 3429 ft 106 kts 148°
2026-04-29 16:06 53.33175 -1.57158 3432 ft 108 kts 148°
2026-04-29 16:06 53.32455 -1.56746 3429 ft 109 kts 148°
2026-04-29 16:06 53.31743 -1.56343 3430 ft 108 kts 149°
2026-04-29 16:06 53.31017 -1.55978 3429 ft 110 kts 151°
2026-04-29 16:07 53.30278 -1.55646 3434 ft 110 kts 150°
2026-04-29 16:07 53.29553 -1.55314 3427 ft 110 kts 150°
2026-04-29 16:07 53.28826 -1.54975 3425 ft 107 kts 149°
2026-04-29 16:07 53.28109 -1.54643 3424 ft 107 kts 150°
2026-04-29 16:08 53.27376 -1.54383 3411 ft 109 kts 166°
2026-04-29 16:08 53.26591 -1.54547 3427 ft 118 kts 175°
2026-04-29 16:08 53.25779 -1.54778 3427 ft 119 kts 176°
2026-04-29 16:08 53.24966 -1.55026 3436 ft 120 kts 176°
2026-04-29 16:09 53.24146 -1.55302 3445 ft 120 kts 176°
2026-04-29 16:09 53.23320 -1.55605 3425 ft 122 kts 176°
2026-04-29 16:09 53.22491 -1.55932 3420 ft 122 kts 176°
2026-04-29 16:09 53.21664 -1.56278 3419 ft 123 kts 176°
2026-04-29 16:10 53.20838 -1.56613 3423 ft 121 kts 175°
2026-04-29 16:10 53.20026 -1.56474 3427 ft 113 kts 142°
2026-04-29 16:10 53.19341 -1.55989 3430 ft 104 kts 140°
2026-04-29 16:10 53.18690 -1.55512 3421 ft 107 kts 140°
2026-04-29 16:11 53.17968 -1.54937 3446 ft 121 kts 141°
2026-04-29 16:11 53.17210 -1.54296 3451 ft 121 kts 141°
2026-04-29 16:11 53.16460 -1.53671 3416 ft 121 kts 139°
2026-04-29 16:11 53.15728 -1.53053 3417 ft 119 kts 140°
2026-04-29 16:12 53.14994 -1.52425 3404 ft 117 kts 140°
2026-04-29 16:12 53.14507 -1.51999 3408 ft 117 kts 140°
2026-04-29 16:12 53.13566 -1.51168 3408 ft 114 kts 140°
2026-04-29 16:12 53.12863 -1.50564 3411 ft 114 kts 140°
2026-04-29 16:13 53.12160 -1.49948 3414 ft 114 kts 140°
2026-04-29 16:13 53.11454 -1.49326 3415 ft 116 kts 140°
2026-04-29 16:13 53.10741 -1.48705 3415 ft 116 kts 140°
2026-04-29 16:13 53.10024 -1.48109 3411 ft 115 kts 150°
2026-04-29 16:14 53.09200 -1.48188 3414 ft 128 kts 184°
2026-04-29 16:14 53.08313 -1.48673 3413 ft 137 kts 185°
2026-04-29 16:14 53.07428 -1.49170 3416 ft 132 kts 183°
2026-04-29 16:14 53.06532 -1.49571 3413 ft 135 kts 180°
2026-04-29 16:15 53.05611 -1.49960 3422 ft 137 kts 180°
2026-04-29 16:15 53.04676 -1.50344 3420 ft 139 kts 180°
2026-04-29 16:15 53.03700 -1.50719 3095 ft 148 kts 180°
2026-04-29 16:15 53.02753 -1.51104 3037 ft 138 kts 180°
2026-04-29 16:16 53.01809 -1.51510 2989 ft 141 kts 181°
2026-04-29 16:16 53.00879 -1.51890 3027 ft 135 kts 180°
2026-04-29 16:16 52.99956 -1.52241 3001 ft 142 kts 180°
2026-04-29 16:16 52.99000 -1.52627 3067 ft 141 kts 180°
2026-04-29 16:17 52.98052 -1.53036 3083 ft 141 kts 180°
2026-04-29 16:17 52.97100 -1.53418 3102 ft 140 kts 180°
2026-04-29 16:17 52.96156 -1.53810 3099 ft 141 kts 180°
2026-04-29 16:17 52.95204 -1.54213 3111 ft 141 kts 179°
2026-04-29 16:18 52.94245 -1.54515 3129 ft 139 kts 175°
2026-04-29 16:18 52.93298 -1.54786 3130 ft 138 kts 175°
2026-04-29 16:18 52.92357 -1.55059 3129 ft 137 kts 175°
2026-04-29 16:18 52.91415 -1.55340 3126 ft 138 kts 175°
2026-04-29 16:19 52.90477 -1.55634 3121 ft 135 kts 175°
2026-04-29 16:19 52.89508 -1.55901 2828 ft 145 kts 175°
2026-04-29 16:19 52.88552 -1.56122 2757 ft 135 kts 171°
2026-04-29 16:19 52.87654 -1.55712 2425 ft 134 kts 132°
2026-04-29 16:20 52.87099 -1.54682 2385 ft 106 kts 116°
2026-04-29 16:20 52.86662 -1.53722 2177 ft 110 kts 115°
2026-04-29 16:20 52.86201 -1.52650 2066 ft 112 kts 115°
2026-04-29 16:20 52.85746 -1.51586 1885 ft 120 kts 115°
2026-04-29 16:21 52.85301 -1.50430 1748 ft 115 kts 112°
2026-04-29 16:21 52.84898 -1.49337 1708 ft 110 kts 110°
2026-04-29 16:21 52.84512 -1.48184 1594 ft 118 kts 109°
2026-04-29 16:21 52.84102 -1.46949 1476 ft 125 kts 108°
2026-04-29 16:22 52.83706 -1.45687 1400 ft 122 kts 108°
2026-04-29 16:22 52.83340 -1.44396 1268 ft 124 kts 104°
2026-04-29 16:22 52.83077 -1.43081 1141 ft 116 kts 97°
2026-04-29 16:22 52.82938 -1.41829 982 ft 101 kts 90°
2026-04-29 16:23 52.82926 -1.40828 845 ft 72 kts 83°
2026-04-29 16:23 52.82953 -1.40097 717 ft 59 kts 81°
2026-04-29 16:23 52.82966 -1.39403 690 ft 60 kts 83°
2026-04-29 16:23 52.82986 -1.38705 668 ft 64 kts 80°
2026-04-29 16:24 52.83030 -1.37975 709 ft 68 kts 83°
2026-04-29 16:24 52.83012 -1.37135 629 ft 69 kts 84°
2026-04-29 16:24 52.83035 -1.36398 556 ft 61 kts 82°
2026-04-29 16:24 52.83048 -1.35711 485 ft 58 kts 86°
2026-04-29 16:25 52.83056 -1.35064 394 ft 51 kts 83°
2026-04-29 16:25 52.83068 -1.34488 335 ft 51 kts 83°
2026-04-29 16:25 52.83076 -1.33966 314 ft 39 kts 80°
2026-04-29 16:25 52.83137 -1.33720 303 ft 24 kts 51°